Simultaneous Nadir Overpasses (SNOs) Predictions

Prediction of SNOs between AQUA and NOAA-19 Satellite Orbit:

Table of predicted SNOs for the next 14.0 days since TLE Epoch: 11/24/2012
Index Date (AQUA) Time (AQUA) AQUA Lat,Lon Date (NOAA-19) Time (NOAA-19) NOAA-19 Lat,Lon Distance(km) Time Diff (sec)
1 11/24/2012 16:04:52 46.02, 151.14 11/24/2012 16:04:49 45.96, 151.61 36.90 3
2 11/24/2012 16:44:53 -77.83, -5.70 11/24/2012 16:46:06 -77.44, -3.72 63.69 73
3 11/26/2012 20:48:57 46.72, 80.34 11/26/2012 20:49:09 46.63, 80.76 33.72 12
4 11/26/2012 21:20:50 -67.51, 43.31 11/26/2012 21:22:03 -67.20, 41.36 90.01 73
5 11/29/2012 00:44:01 -46.01,-158.64 11/29/2012 00:42:51 -45.87,-157.91 59.10 70
6 11/29/2012 01:32:57 47.64, 9.63 11/29/2012 01:33:24 47.57, 10.02 30.73 27
7 12/01/2012 05:28:15
